Location: Moena
(46.3667°N, 11.6500°E)
Time: 09:16:27
(UTC+00:00)

Cosmos 2333 Rocket - Visible Passes

Search period start: 16 June 2021 00:00
Search period end: 26 June 2021 00:00
Orbit: 839 x 863 km, 70.8° (Epoch: 15 June)

Date Brightness Start Highest point End Pass type
(mag) Time Alt. Az. Time Alt. Az. Time Alt. Az.
16 Jun 2.4 21:09:00 17° S 21:13:19 53° ESE 21:18:52 10° NE visible
16 Jun 3.9 22:52:51 10° WSW 22:57:52 30° NW 23:02:53 10° N visible
17 Jun 2.4 20:55:53 12° S 21:01:02 53° ESE 21:06:36 10° NE visible
17 Jun 3.9 22:40:35 10° WSW 22:45:36 30° NW 22:50:37 10° N visible
18 Jun 2.4 20:43:14 10° S 20:48:46 53° ESE 20:54:20 10° NE visible
18 Jun 4.0 22:28:20 10° WSW 22:33:20 30° NW 22:38:20 10° N visible
19 Jun 2.4 20:30:57 10° S 20:36:31 53° ESE 20:42:04 10° NE visible
19 Jun 4.0 22:16:04 10° WSW 22:21:04 30° NW 22:26:05 10° N visible
20 Jun 2.4 20:18:42 10° S 20:24:14 53° ESE 20:29:48 10° NE visible
20 Jun 4.0 22:03:49 10° WSW 22:08:48 30° NW 22:13:49 10° N visible
21 Jun 2.4 20:06:26 10° S 20:11:59 53° ESE 20:17:32 10° NE visible
21 Jun 4.1 21:51:33 10° WSW 21:56:32 30° NW 22:01:33 10° N visible
22 Jun 2.4 19:54:10 10° S 19:59:43 53° ESE 20:05:17 10° NE visible
22 Jun 4.1 21:39:16 10° WSW 21:44:17 30° NW 21:49:17 10° N visible
23 Jun 2.4 19:41:54 10° S 19:47:27 53° ESE 19:53:01 10° NE visible
23 Jun 4.2 21:27:01 10° WSW 21:32:01 30° NW 21:37:01 10° N visible
24 Jun 4.2 21:14:45 10° WSW 21:19:45 30° NW 21:24:45 10° N visible
25 Jun 5.7 02:39:45 10° NNE 02:41:25 11° NNE 02:43:04 10° NE visible
25 Jun 4.3 21:02:30 10° WSW 21:07:29 30° NW 21:12:29 10° N visible
